Location: Grand Mazuras
(45.9128°N, 1.7636°E)
Time: 04:02:05
(UTC+00:00)

Cosmos 44 - Pass Details

Date: 18 April 2021
Orbit: 571 x 791 km, 65.1° (Epoch: 10 May)

Event Time Altitude Azimuth Distance (km) Brightness Sun altitude
Rises 19:08:29 0° 180° (S) 3,069 6.4 -4.9°
Reaches altitude 10° 19:11:03 10° 167° (SSE) 2,194 5.6 -5.3°
Maximum altitude 19:15:13 26° 112° (ESE) 1,421 4.3 -5.9°
Drops below altitude 10° 19:19:35 10° 56° (NE) 2,309 5.7 -6.6°
Sets 19:22:21 0° 45° (NE) 3,264 6.5 -7.1°
